Погода в Мачале

Эквадор     3°16′11″S   79°57′02″W
темп.,
°C
ветер,
м/с
пор.,
м/с
влажн.,
%
обл.,
%
осадки,
мм/ч
давл.,
гПа
погр.,
м
22 января, сб
сб2201:00+24сз128190 0.3 1012169
04:00+24с118471 0.1 1010127
07:00+24св11849 0.1 1011188
10:00+27ссз326636 0.0 1012844
13:00+28зсз436298 0.0 1011876
16:00+28з646511 0.0 1007648
19:00+25з347715 0.0 1010365
22:00+24зюз237992 0.0 1012325
23 января, вс
вс2301:00+24з1180100 0.1 1012261
04:00+24с1182100 0.1 1010223
07:00+24ссв128394 0.3 1011274
10:00+28сз216724 0.0 1012703
13:00+28зсз44638 0.1 1010597
16:00+28з546125 0.0 1007714
19:00+25з4574100 0.0 1009299
22:00+25зюз2377100 0.0 1011331
24 января, пн
пн2401:00+24зсз1280100 0.2 1011318
04:00+24ссз1282100 0.2 1010287
07:00+24ссв238593 0.4 1011319
10:00+24с228198 0.0 1012464
13:00+26с337387 0.0 1010695
16:00+27зсз3268100 0.0 1007589
19:00+25з3478100 0.0 1009257
22:00+25з2280100 0.1 1011212
25 января, вт
вт2501:00+23з2387100 0.6 1010244
04:00+23зсз1190100 0.6 1009139
07:00+23с1188100 0.7 1011206
10:00+24с2384100 0.3 1012404
13:00+26ссв337595 0.3 1011682
16:00+24св358499 0.3 1009441
19:00+23св2286100 0.4 1011229
22:00+24св1283100 0.1 1012219
26 января, ср
ср2601:00+23вюв118787 0.1 1011102
04:00+22юв118996 0.0 101085
07:00+23всв118778 0.1 101294
10:00+24св228298 1.0 1013293
13:00+25с117584 1.3 1011470
16:00+26зсз227191 0.0 1009622
19:00+25зсз238097 0.0 1010293
22:00+24юз228764 0.1 1013160